{"data":{"norad_id":55456,"intl_designator":"2023-015H","name":"STARLINK-5058","alt_names":[],"object_type":"PAYLOAD","status":"ACTIVE","operator":null,"country":"US","launch_date":"2023-02-02","launch_site_code":"AFETR","launch_vehicle":null,"mission":null,"orbit_class":"UNKNOWN","rcs_meters":null,"size_class":null,"mass_kg":null,"dimensions":null,"purposes":["comms"],"wikipedia_slug":null,"has_3d_model":false,"image_url":null,"decayed_at":null,"tle_current":{"epoch":"2026-09-20T09:57:37.694304Z","epoch_age_seconds":107779,"freshness":"FRESH","line1":"1 55456U 23015H   26263.41501961 -.00000390  00000+0 -46468-5 0  9998","line2":"2 55456  43.0026 308.9457 0001325 267.8028  92.2672 15.27573981200505","mean_motion":15.27573981,"eccentricity":0.0001325,"inclination_deg":43.0026,"raan_deg":308.9457,"arg_perigee_deg":267.8028,"mean_anomaly_deg":92.2672,"bstar":-4.6468e-6,"rev_number":20050,"period_min":94.267120146766,"perigee_km":482.15800960437,"apogee_km":483.97622869594,"semimajor_km":6861.2041191502,"source":"CELESTRAK","updated_at":"2026-09-21T09:00:33.227147Z"}}}